Location: Bayshore Village Mobile Home Park
(26.6945°N, 81.8642°W)
Time: 00:28:46
(UTC+00:00)

IGS 5A - Pass Details

Date: 17 June 2021
Orbit: 583 x 587 km, 97.6° (Epoch: 17 July)

Event Time Altitude Azimuth Distance (km) Brightness Sun altitude
Exits shadow 02:01:25 44° 103° (ESE) 819 3.7 -19.2°
Maximum altitude 02:02:01 47° 76° (ENE) 776 3.8 -19.3°
Drops below altitude 10° 02:06:00 10° 2° (N) 1,912 6.6 -20.0°
Sets 02:08:13 0° 357° (N) 2,816 7.6 -20.4°
